Location: Alfords
(31.4624°N, 83.9238°W)
Time: 14:39:28
(UTC+00:00)

N. Korean satellite - Pass Details

Date: 21 September 2021
Orbit: 450 x 495 km, 97.3° (Epoch: 19 October)

Event Time Altitude Azimuth Distance (km) Brightness Sun altitude
Rises 10:09:08 0° 27° (NNE) 2,517 10.8 -16.6°
Reaches altitude 10° 10:11:28 10° 41° (NE) 1,645 10.0 -16.1°
Maximum altitude 10:14:23 24° 97° (E) 1,030 9.1 -15.5°
Drops below altitude 10° 10:17:19 10° 153° (SSE) 1,657 9.5 -14.9°
Sets 10:19:40 0° 167° (SSE) 2,541 10.3 -14.4°
